[[{"header":{"parameterUnit":"m.s-1","parameterCategory":1,"la1":30.2991,"la2":30.254,"lo1":-89.0895,"lo2":-89.0444,"dy":0.0017,"dx":0.0017,"nx":28,"ny":28,"refTime":"2024-04-15T21:00:00:Z","depth":0,"parameterNumber":2,"parameterNumberName":"U-component_of_WINDS"},"data":[0,0,0,0,0,0,0,0,0,0,0,0,0,0,0,0,0,0,0,0,0,0,0,0,0,0,0,0,0,0,0,0,0,0,0,0,0,0,0,0,0,0,0,0,0,0,0,0,0,0,0,0,0,0,0,0,0,0,-4.9042,-4.9042,0,-4.9015,-4.9015,-4.9014,-4.8952,-4.895,-4.8949,-4.8948,-4.8921,-4.8921,-4.8922,0,0,0,0,0,0,0,0,0,0,0,0,0,-4.9043,-4.9043,-4.9042,-4.9042,-4.9042,-4.9015,-4.9015,-4.9014,-4.8952,-4.895,-4.8949,-4.8947,-4.8921,-4.8921,-4.8922,0,0,0,0,0,0,0,0,0,0,0,0,0,-4.9032,-4.9043,-4.9042,-4.9007,-4.9004,-4.9015,-4.9015,-4.9014,-4.8952,-4.895,-4.8948,-4.8947,-4.892,-4.8921,-4.8922,-4.8965,0,0,-4.8924,-4.8924,0,0,0,0,0,0,0,0,-4.9033,-4.9032,-4.9013,-4.901,-4.9006,-4.8985,-4.9005,-4.8998,-4.8953,-4.8972,-4.8948,-4.8946,-4.8944,-4.8942,-4.8941,-4.8964,-4.8963,-4.8924,-4.8924,-4.8925,-4.8925,0,0,0,0,0,0,0,-4.9033,-4.9033,-4.9031,-4.9013,-4.9008,-4.8994,-4.899,-4.9003,-4.8969,-4.897,-4.8965,-4.8963,-4.8941,-4.8941,-4.894,-4.8962,-4.8924,-4.8925,-4.8925,-4.8925,-4.9019,-4.9021,0,0,0,0,0,0,-4.9039,-4.9034,-4.9032,-4.9031,-4.9015,-4.8995,-4.8991,-4.8994,-4.8969,-4.8963,-4.8965,-4.896,-4.8941,-4.894,-4.8939,-4.8987,-4.8925,-4.8925,-4.8926,-4.9017,-4.9019,-4.9022,0,0,0,0,0,0,-4.9039,-4.9039,-4.9033,-4.9031,-4.9029,-4.8997,-4.9001,-4.8994,-4.8993,-4.8965,-4.8958,-4.897,-4.8939,-4.8938,-4.8959,-4.8985,-4.8926,-4.8926,-4.9014,-4.9018,-4.902,-4.9084,0,0,0,0,0,0,-4.9039,-4.904,-4.9055,-4.9032,-4.9029,-4.9053,-4.9002,-4.8995,-4.8995,-4.8988,-4.8968,-4.8963,-4.8937,-4.8958,-4.896,-4.8985,-4.8927,-4.9012,-4.9016,-4.9019,-4.908,-4.9089,-4.9097,0,0,0,0,0,-4.904,-4.9075,-4.9056,-4.9057,-4.9048,-4.9055,-4.9054,-4.9023,-4.8997,-4.9012,-4.8994,-4.8964,-4.8983,-4.8961,-4.8962,-4.8988,-4.901,-4.9015,-4.9019,-4.9076,-4.9087,-4.9097,0,0,0,0,0,0,-4.9102,-4.9071,-4.905,-4.9078,-4.907,-4.9044,-4.9062,-4.9037,-4.9035,-4.9029,-4.8993,-4.8989,-4.9014,-4.9004,-4.898,-4.9029,-4.8992,-4.8997,-4.9034,-4.9045,-4.9054,-4.9054,-4.8928,0,0,0,0,0,-4.9119,-4.9127,-4.9099,-4.9127,-4.9124,-4.9094,-4.9096,-4.9074,-4.9063,-4.9059,-4.9043,-4.9034,-4.9038,-4.9042,-4.9044,-4.9079,-4.9073,-4.9098,-4.9107,-4.9114,-4.9118,-4.9135,-4.9146,-4.9037,-4.9037,-4.9037,0,0,-4.9154,-4.9138,-4.9145,-4.9139,-4.9129,-4.9139,-4.9091,-4.9103,-4.9109,-4.9061,-4.9079,-4.9067,-4.9056,-4.9084,-4.9095,-4.9076,-4.9148,-4.912,-4.9126,-4.9126,-4.9141,-4.9152,-4.9161,-4.904,-4.9039,-4.9039,0,0,-4.9221,-4.9211,-4.9232,-4.9224,-4.9211,-4.9191,-4.9197,-4.9176,-4.9166,-4.9184,-4.9148,-4.9156,-4.9164,-4.9156,-4.9154,-4.9222,-4.9193,-4.9224,-4.9269,-4.9287,-4.9295,-4.9303,-4.9325,-4.9334,-4.9229,-4.9229,-4.9229,0,-4.9266,-4.9278,-4.9246,-4.926,-4.9259,-4.9217,-4.9238,-4.9232,-4.9221,-4.9221,-4.92,-4.9209,-4.9198,-4.9224,-4.924,-4.9241,-4.9245,-4.9225,-4.9297,-4.9304,-4.931,-4.9331,-4.934,-4.9233,-4.9232,-4.9232,-4.9232,0,-4.9333,-4.9342,-4.9361,-4.935,-4.9352,-4.937,-4.9341,-4.9347,-4.9326,-4.9309,-4.9328,-4.9314,-4.9313,-4.9318,-4.9297,-4.9341,-4.9329,-4.9303,-4.9264,-4.9324,-4.9344,-4.9352,-4.9238,-4.9237,-4.9236,-4.9235,0,0,-4.9435,-4.9409,-4.9416,-4.9411,-4.9394,-4.9401,-4.9418,-4.9416,-4.9421,-4.9416,-4.9428,-4.9437,-4.9413,-4.9411,-4.939,-4.9405,-4.9459,-4.9377,-4.9376,-4.9391,-4.9505,-4.9522,-4.9532,-4.9441,-4.9443,-4.9444,-4.9505,0,-4.9497,-4.9522,-4.9496,-4.9527,-4.9534,-4.9496,-4.9511,-4.9503,-4.9489,-4.9494,-4.9478,-4.9484,-4.9453,-4.9451,-4.9466,-4.9449,-4.948,-4.9445,-4.9451,-4.9452,-4.9452,-4.9542,-4.956,-4.9618,-4.9512,-4.9514,-4.9515,0,-4.9571,-4.9569,-4.96,-4.9582,-4.9585,-4.9598,-4.9595,-4.9601,-4.9592,-4.958,-4.9579,-4.9553,-4.9569,-4.9534,-4.9555,-4.9531,-4.9533,-4.9526,-4.9527,-4.9524,-4.9484,-4.9539,-4.9636,-4.9644,-4.9526,-4.9525,-4.9525,0,-4.964,-4.9645,-4.9665,-4.9662,-4.9642,-4.9652,-4.9645,-4.9633,-4.9635,-4.9633,-4.9633,-4.9634,-4.9633,-4.9635,-4.9611,-4.9588,-4.9634,-4.9597,-4.9624,-4.9625,-4.9633,-4.9632,-4.9729,-4.964,-4.964,-4.9639,-4.9639,0,-4.9709,-4.973,-4.9695,-4.9707,-4.9729,-4.97,-4.9723,-4.9712,-4.9702,-4.9712,-4.968,-4.969,-4.9658,-4.9665,-4.9647,-4.9666,-4.9667,-4.9658,-4.9652,-4.9659,-4.966,-4.9657,-4.9651,-4.9642,-4.9641,-4.9641,-4.964,0,-4.9788,-4.9766,-4.9784,-4.9765,-4.9761,-4.9778,-4.9761,-4.9771,-4.9757,-4.9769,-4.977,-4.9746,-4.9752,-4.9729,-4.9732,-4.972,-4.9748,-4.9737,-4.9751,-4.9746,-4.9774,-4.977,-4.987,-4.9881,-4.9787,-4.9788,-4.9789,0,-4.9833,-4.9847,-4.983,-4.9833,-4.9827,-4.9834,-4.9835,-4.9808,-4.9811,-4.9803,-4.9814,-4.9818,-4.9819,-4.9831,-4.9814,-4.9816,-4.9803,-4.9838,-4.9803,-4.9809,-4.9801,-4.9799,-4.98,-4.9844,-4.9845,-4.9846,-4.9847,0,-4.9913,-4.9902,-4.9904,-4.9904,-4.9906,-4.9904,-4.99,-4.9906,-4.9877,-4.9882,-4.9887,-4.9888,-4.9891,-4.9895,-4.9894,-4.9887,-4.9862,-4.9859,-4.9865,-4.987,-4.9876,-4.9871,-4.9767,-4.9856,-4.9855,-4.9854,-4.9854,-4.9853,-4.9974,-4.9985,-4.9975,-4.9979,-4.9974,-4.9971,-4.998,-4.9966,-4.997,-4.997,-4.9955,-4.9964,-4.9955,-4.9951,-4.9947,-4.9954,-4.9937,-4.9946,-4.9948,-4.995,-4.9954,-4.9878,-4.9954,-4.9954,-4.9953,-4.9953,-4.9953,0,-5.0051,-5.0043,-5.0047,-5.0043,-5.0046,-5.0024,-5.0019,-5.0024,-5.0032,-5.0026,-5.0028,-5.0036,-5.004,-5.0024,-5.0026,-5.0035,-5.0024,-5.0036,-5.0033,-5.0032,-4.9969,-4.9963,-5.0045,-5.0045,-5.0045,-5.0045,-5.0045,-5.0045,-5.0091,-5.0108,-5.0096,-5.0111,-5.0103,-5.0111,-5.011,-5.0108,-5.0103,-5.0112,-5.0116,-5.0106,-5.0096,-5.0098,-5.0101,-5.0096,-5.0097,-5.0113,-5.0105,-5.0046,-5.0037,-5.0028,-5.0021,-5.0115,-5.0115,-5.0166,-5.0167,-5.0167]},{"header":{"parameterUnit":"m.s-1","parameterCategory":1,"la1":30.2991,"la2":30.254,"lo1":-89.0895,"lo2":-89.0444,"dy":0.0017,"dx":0.0017,"nx":28,"ny":28,"refTime":"2024-04-15T21:00:00:Z","depth":0,"parameterNumber":3,"parameterNumberName":"V-component_of_WINDS"},"data":[0,0,0,0,0,0,0,0,0,0,0,0,0,0,0,0,0,0,0,0,0,0,0,0,0,0,0,0,0,0,0,0,0,0,0,0,0,0,0,0,0,0,0,0,0,0,0,0,0,0,0,0,0,0,0,0,0,0,3.0111,3.011,0,3.0045,3.0044,3.0044,3.0007,3.0007,3.0007,3.0007,2.9937,2.9935,2.9933,0,0,0,0,0,0,0,0,0,0,0,0,0,3.0207,3.0205,3.0111,3.011,3.0109,3.0045,3.0044,3.0043,3.0007,3.0007,3.0007,3.0007,2.9937,2.9935,2.9933,0,0,0,0,0,0,0,0,0,0,0,0,0,3.0155,3.0204,3.0111,3.0084,3.0081,3.0045,3.0044,3.0043,3.0008,3.0007,3.0007,3.0007,2.9938,2.9935,2.9933,2.9919,0,0,2.9924,2.9923,0,0,0,0,0,0,0,0,3.0158,3.0152,3.0089,3.0086,3.0082,3.0034,3.0052,3.0001,3.0008,3.0035,3.0007,3.0007,2.9969,2.9964,2.9952,2.9915,2.9912,2.9924,2.9922,2.9921,2.9921,0,0,0,0,0,0,0,3.0162,3.0154,3.0085,3.0088,3.0084,3.0075,3.0068,3.0042,3.0003,3.0033,3.003,3.0023,2.9967,2.9954,2.995,2.9911,2.9924,2.9922,2.992,2.9919,2.9866,2.9866,0,0,0,0,0,0,3.017,3.0158,3.0087,3.0083,3.0121,3.0074,3.0065,3.005,3.0004,2.9997,3.0023,3.0021,2.9959,2.9953,2.9947,2.9931,2.9921,2.9919,2.9917,2.9866,2.9866,2.9866,0,0,0,0,0,0,3.0172,3.0164,3.0089,3.012,3.0109,3.0072,3.0055,3.0049,3.0036,2.9996,2.9989,3.0017,2.9959,2.9951,2.9928,2.9928,2.9918,2.9915,2.9866,2.9866,2.9866,2.9897,0,0,0,0,0,0,3.0175,3.0165,3.0158,3.012,3.0108,3.0071,3.0055,3.0047,3.0031,3.0029,2.9989,2.9982,2.9958,2.9932,2.9925,2.9924,2.9913,2.9865,2.9866,2.9866,2.9896,2.9898,2.9901,0,0,0,0,0,3.0178,3.0168,3.0158,3.015,3.0099,3.0071,3.0064,3.0037,3.0032,3.0026,3.0002,2.9983,2.993,2.993,2.9921,2.992,2.9865,2.9866,2.9866,2.9895,2.9898,2.9901,0,0,0,0,0,0,3.0204,3.0162,3.0151,3.0127,3.0103,3.0065,3.0055,3.0041,3.0017,3.0015,2.9982,2.9974,2.9954,2.9935,2.9936,2.9907,2.9896,2.9895,2.992,2.9923,2.9925,2.993,2.9911,0,0,0,0,0,3.0208,3.0189,3.0152,3.0135,3.0124,3.0093,3.0079,3.0061,3.0034,3.0023,2.9997,2.9972,2.995,2.9935,2.9912,2.9894,2.9886,2.9889,2.9891,2.9894,2.9893,2.9886,2.9888,2.9868,2.9868,2.9868,0,0,3.0214,3.0188,3.0177,3.014,3.0119,3.0101,3.0084,3.0063,3.005,3.002,2.9997,2.9978,2.9947,2.9928,2.9918,2.9911,2.9897,2.9894,2.9896,2.9894,2.9887,2.9889,2.9891,2.9868,2.9868,2.9868,0,0,3.0216,3.0193,3.0179,3.016,3.013,3.011,3.0108,3.0072,3.0059,3.0037,3.0015,2.9999,2.996,2.9941,2.9926,2.9928,2.9912,2.9922,2.9934,2.9928,2.9929,2.9931,2.9934,2.9936,2.9921,2.9921,2.9921,0,3.0226,3.0198,3.0173,3.0156,3.0142,3.0117,3.0104,3.0086,3.005,3.0041,3.0034,2.9989,2.9966,2.9944,2.9946,2.9933,2.9931,2.9925,2.9931,2.9932,2.9933,2.9936,2.9937,2.9923,2.9923,2.9923,2.9922,0,3.0214,3.0196,3.0188,3.0157,3.0142,3.0126,3.01,3.0088,3.0074,3.0055,3.0035,3.0008,2.9982,2.9975,2.9958,2.9952,2.9949,2.9938,2.9925,2.9937,2.994,2.994,2.9925,2.9925,2.9924,2.9924,0,0,3.0226,3.0187,3.0184,3.0172,3.0141,3.0126,3.0112,3.0088,3.008,3.0057,3.0045,3.0016,3.0008,2.9991,2.9973,2.9968,2.9976,2.9957,2.9956,2.9963,2.9971,2.998,2.9982,2.9965,2.9965,2.9966,2.9974,0,3.0225,3.0198,3.0178,3.0159,3.0144,3.0124,3.0112,3.0092,3.0076,3.0061,3.0042,3.0024,3.0012,3.0002,2.9996,2.9976,2.9977,2.9975,2.9955,2.9955,2.9964,2.9983,2.9991,3.0,2.9975,2.9975,2.9975,0,3.0218,3.02,3.0181,3.0157,3.0149,3.0139,3.0119,3.0104,3.0083,3.0072,3.0057,3.004,3.0026,3.0017,2.9998,2.9998,2.9989,2.9979,2.9978,2.9975,2.9965,2.9982,3.0002,3.0004,2.9975,2.9975,2.9975,0,3.0232,3.0203,3.0189,3.0179,3.0149,3.0143,3.013,3.0109,3.0098,3.0081,3.0074,3.0054,3.0044,3.003,3.0009,3.0004,2.9994,2.9982,2.9986,2.9986,2.9983,2.9984,3.0004,2.9977,2.9977,2.9977,2.9977,0,3.0232,3.0222,3.0196,3.0187,3.0176,3.0155,3.0144,3.013,3.0113,3.0102,3.0083,3.0073,3.0046,3.0034,3.0018,3.0007,3.0002,2.9994,2.999,2.9996,2.9997,2.9989,2.9988,2.9977,2.9977,2.9977,2.9977,0,3.0245,3.0226,3.021,3.0186,3.018,3.0173,3.0152,3.0144,3.013,3.0117,3.0113,3.0089,3.0074,3.0053,3.003,3.002,3.0013,3.0005,3.002,3.0018,3.0024,3.0024,3.004,3.0042,3.0013,3.0013,3.0013,0,3.0246,3.0239,3.0215,3.0208,3.0197,3.0184,3.0175,3.0155,3.0146,3.0125,3.012,3.0105,3.0091,3.0069,3.005,3.0035,3.0028,3.0035,3.0025,3.0033,3.003,3.0031,3.0032,3.0036,3.0037,3.0037,3.0037,0,3.0252,3.0245,3.0232,3.0218,3.0208,3.0195,3.0181,3.0177,3.0154,3.0145,3.0132,3.0122,3.0103,3.0088,3.0071,3.0059,3.0045,3.0042,3.0042,3.0048,3.0058,3.0055,3.0028,3.0041,3.004,3.004,3.004,3.004,3.026,3.0254,3.0239,3.0227,3.0216,3.0205,3.0198,3.0184,3.0173,3.0157,3.0146,3.0134,3.0118,3.0095,3.0084,3.0075,3.0069,3.0068,3.0068,3.0069,3.0073,3.006,3.0071,3.0071,3.0071,3.0071,3.0071,0,3.0267,3.0257,3.0247,3.0231,3.0222,3.0213,3.0199,3.0193,3.0183,3.017,3.0159,3.0146,3.0134,3.0117,3.0104,3.01,3.0094,3.0098,3.0098,3.0096,3.0077,3.0079,3.0103,3.0103,3.0103,3.0103,3.0103,3.0103,3.0269,3.026,3.0253,3.0239,3.023,3.022,3.0213,3.0204,3.0194,3.0182,3.0173,3.0162,3.0148,3.0135,3.0125,3.012,3.0117,3.0123,3.0116,3.0099,3.0096,3.0094,3.0095,3.0122,3.0122,3.0136,3.0136,3.0136]}]]